Weather History for Yuma MCAS, AZ

Change the Weather History Date:

Tuesday, June 18, 2013

  Actual Average Record
Temperature  
Mean Temperature 92 °F 90 °F  
Max Temperature 108 °F 104 °F 116 °F (1989)
Min Temperature 75 °F 75 °F 59 °F (1911)
Degree Days  
Heating Degree Days 0 0  
Month to date heating degree days 0 0  
Since 1 June heating degree days 0 0  
Since 1 July heating degree days 705 686  
Cooling Degree Days 27 25  
Month to date cooling degree days 475 405  
Year to date cooling degree days 1536 1317  
Since 1 June cooling degree days 475 405  
Growing Degree Days 41 (Base 50)    
Moisture  
Dew Point 33 °F    
Average Humidity 18    
Maximum Humidity 31    
Minimum Humidity 5    
Precipitation  
Precipitation 0.00 in 0.00 in 0.10 in (1988)
Month to date precipitation 0.00 0.01  
Year to date precipitation 1.11 1.33  
Sea Level Pressure  
Sea Level Pressure 29.70 in    
Wind  
Wind Speed 6 mph (SSW)    
Max Wind Speed 14 mph    
Max Gust Speed 23 mph    
Visibility 10 miles    
Events      
T = Trace of Precipitation, MM = Missing Value Source: NWS Daily Summary

Daily Weather History Graph

Daily Weather History Graph

Search for Another Location

Airport:

Trip Planner

Search our weather history database for the weather conditions in past years. The results will help you decide how hot, cold, wet, or windy it might be!

Date:

Astronomy

Jun. 18, 2013 Rise Set
Actual Time 5:30 AM MST 7:48 PM MST
Civil Twilight 5:02 AM MST 8:17 PM MST
Nautical Twilight 4:27 AM MST 8:52 PM MST
Astronomical Twilight 3:49 AM MST 9:30 PM MST
Moon 2:49 PM MST 1:27 AM MST
Length of Visible Light 15h 15m
Length of Day
14h 18m
Waxing Gibbous, 72% of the Moon is Illuminated
Jun 18
Waxing Gibbous
Jun 23
Full
Jun 29
Last Quarter
Jul 8
New
Jul 15
First Quarter

Hourly Weather History & Observations

Time (MST) Temp. Dew Point Humidity Pressure Visibility Wind Dir Wind Speed Gust Speed Precip Events Conditions
12:57 AM 84.0 °F 44.1 °F 25% 29.72 in 10.0 mi Calm Calm - N/A   Clear
1:57 AM 82.9 °F 39.9 °F 22% 29.72 in 10.0 mi South 6.9 mph - N/A   Clear
2:57 AM 79.0 °F 42.1 °F 27% 29.71 in 10.0 mi South 5.8 mph - N/A   Partly Cloudy
3:57 AM 75.9 °F 43.0 °F 31% 29.71 in 10.0 mi South 8.1 mph - N/A   Partly Cloudy
4:57 AM 75.0 °F 39.9 °F 28% 29.72 in 10.0 mi South 4.6 mph - N/A   Partly Cloudy
5:57 AM 75.0 °F 37.0 °F 25% 29.74 in 10.0 mi South 4.6 mph - N/A   Partly Cloudy
6:57 AM 80.1 °F 37.0 °F 21% 29.75 in 10.0 mi SSE 5.8 mph - N/A   Partly Cloudy
7:57 AM 86.0 °F 37.0 °F 18% 29.76 in 10.0 mi South 6.9 mph - N/A   Partly Cloudy
8:57 AM 90.0 °F 33.1 °F 13% 29.78 in 10.0 mi SSW 5.8 mph - N/A   Smoke
8:59 AM - - N/A% - - North - - N/A   Unknown
9:57 AM 93.9 °F 28.0 °F 10% 29.77 in 10.0 mi South 4.6 mph - N/A   Smoke
10:57 AM 96.1 °F 28.0 °F 9% 29.77 in 10.0 mi Calm Calm - N/A   Smoke
11:57 AM 100.0 °F 19.9 °F 6% 29.76 in 10.0 mi SSW 5.8 mph - N/A   Smoke
12:57 PM 100.9 °F 26.1 °F 7% 29.73 in 10.0 mi Variable 6.9 mph - N/A   Clear
1:57 PM 102.9 °F 24.1 °F 6% 29.71 in 10.0 mi Variable 6.9 mph - N/A   Clear
2:57 PM 105.1 °F 27.0 °F 6% 29.68 in 10.0 mi South 8.1 mph - N/A   Partly Cloudy
3:57 PM 106.0 °F 25.0 °F 6% 29.65 in 10.0 mi SW 5.8 mph 17.3 mph N/A   Clear
4:57 PM 107.1 °F 25.0 °F 6% 29.62 in 10.0 mi WSW 10.4 mph - N/A   Clear
5:57 PM 106.0 °F 24.1 °F 6% 29.62 in 10.0 mi West 9.2 mph - N/A   Clear
6:57 PM 102.9 °F 30.9 °F 8% 29.62 in 10.0 mi SSW 12.7 mph - N/A   Clear
7:57 PM 97.0 °F 33.1 °F 11% 29.61 in 10.0 mi SSW 9.2 mph - N/A   Clear
8:57 PM 93.0 °F 37.0 °F 14% 29.63 in 10.0 mi SW 5.8 mph - N/A   Partly Cloudy
9:57 PM 90.0 °F 43.0 °F 19% 29.65 in 9.0 mi West 10.4 mph - N/A   Clear
10:57 PM 88.0 °F 37.0 °F 16% 29.65 in 10.0 mi West 6.9 mph - N/A   Clear
11:19 PM - - N/A% - - North - - N/A   Unknown
11:57 PM 82.9 °F 39.9 °F 22% 29.65 in 9.0 mi SSW 3.5 mph - N/A   Clear